Time,TemperatureF,DewpointF,PressureIn,WindDirection,WindDirectionDegrees,WindSpeedMPH,WindSpeedGustMPH,Humidity,HourlyPrecipIn,Conditions,Clouds,dailyrainin,SoftwareType,DateUTC
2013-01-12 00:01:00,44.0,43.2,30.08,NNE,30,0.0,0.0,97,0.00,RA,,0.00,WeatherDisplay:10.37,2013-01-12 05:01:00,
2013-01-12 00:03:00,44.0,43.2,30.09,NNE,30,0.0,0.0,97,0.00,,,0.00,WeatherDisplay:10.37,2013-01-12 05:03:00,
2013-01-12 00:08:00,43.9,43.1,30.09,NNE,31,0.0,0.0,97,0.00,,,0.00,WeatherDisplay:10.37,2013-01-12 05:08:00,
2013-01-12 00:13:00,43.9,43.1,30.09,NNE,30,0.0,0.0,97,0.00,,,0.00,WeatherDisplay:10.37,2013-01-12 05:13:00,
2013-01-12 00:18:00,43.8,43.0,30.09,NNE,30,0.0,0.0,97,0.00,,,0.00,WeatherDisplay:10.37,2013-01-12 05:18:00,
2013-01-12 00:23:00,43.9,43.1,30.09,NNE,30,0.0,0.0,97,0.00,,,0.00,WeatherDisplay:10.37,2013-01-12 05:23:00,
2013-01-12 00:28:00,43.8,43.0,30.09,NNE,31,0.0,0.0,97,0.00,,,0.00,WeatherDisplay:10.37,2013-01-12 05:28:00,
2013-01-12 00:33:00,43.8,43.0,30.09,NNE,31,0.0,0.0,97,0.00,,,0.00,WeatherDisplay:10.37,2013-01-12 05:33:00,
2013-01-12 00:38:00,43.8,43.0,30.08,NNE,31,0.0,0.0,97,0.00,,,0.00,WeatherDisplay:10.37,2013-01-12 05:38:00,
2013-01-12 00:43:00,43.8,43.0,30.08,NNE,31,0.0,0.0,97,0.00,,,0.00,WeatherDisplay:10.37,2013-01-12 05:43:00,
2013-01-12 00:48:00,43.8,43.0,30.08,NNE,30,0.0,0.0,97,0.00,,,0.00,WeatherDisplay:10.37,2013-01-12 05:48:00,
2013-01-12 00:53:00,43.8,43.0,30.08,NNE,30,1.1,0.0,97,0.00,,,0.00,WeatherDisplay:10.37,2013-01-12 05:53:00,
2013-01-12 00:58:00,43.8,43.0,30.09,NNE,31,0.0,0.0,97,0.00,,,0.00,WeatherDisplay:10.37,2013-01-12 05:58:00,
2013-01-12 01:03:00,43.8,43.0,30.09,NNE,30,0.0,0.0,97,0.00,,,0.00,WeatherDisplay:10.37,2013-01-12 06:03:00,
2013-01-12 01:08:00,43.8,43.0,30.09,NNE,31,0.0,0.0,97,0.00,,,0.00,WeatherDisplay:10.37,2013-01-12 06:08:00,
2013-01-12 01:13:00,43.8,43.0,30.09,NNE,31,0.0,0.0,97,0.00,,,0.00,WeatherDisplay:10.37,2013-01-12 06:13:00,
2013-01-12 01:18:00,43.8,43.0,30.09,NNE,30,0.0,0.0,97,0.00,,,0.00,WeatherDisplay:10.37,2013-01-12 06:18:00,
2013-01-12 01:23:00,43.8,43.0,30.09,NNE,31,0.0,0.0,97,0.00,,,0.00,WeatherDisplay:10.37,2013-01-12 06:23:00,
2013-01-12 01:28:00,43.7,42.9,30.09,NNE,30,0.0,0.0,97,0.00,,,0.00,WeatherDisplay:10.37,2013-01-12 06:28:00,
2013-01-12 01:33:00,43.7,42.9,30.09,NNE,31,0.0,0.0,97,0.00,,,0.00,WeatherDisplay:10.37,2013-01-12 06:33:00,
2013-01-12 01:38:00,43.7,42.9,30.09,NNE,31,0.0,0.0,97,0.00,,,0.00,WeatherDisplay:10.37,2013-01-12 06:38:00,
2013-01-12 01:43:00,43.7,42.9,30.09,NNE,31,0.0,0.0,97,0.00,,,0.00,WeatherDisplay:10.37,2013-01-12 06:43:00,
2013-01-12 01:48:00,43.8,43.0,30.09,NNE,30,0.0,0.0,97,0.00,,,0.00,WeatherDisplay:10.37,2013-01-12 06:48:00,
2013-01-12 01:53:00,43.9,43.1,30.10,NNE,31,0.0,0.0,97,0.00,,,0.00,WeatherDisplay:10.37,2013-01-12 06:53:00,
2013-01-12 01:58:00,43.9,43.1,30.10,NNE,30,0.0,0.0,97,0.00,,,0.00,WeatherDisplay:10.37,2013-01-12 06:58:00,
2013-01-12 02:03:00,43.8,43.0,30.10,NNE,31,0.0,0.0,97,0.00,,,0.00,WeatherDisplay:10.37,2013-01-12 07:03:00,
2013-01-12 02:08:00,43.9,43.1,30.09,NNE,30,0.0,0.0,97,0.00,,,0.00,WeatherDisplay:10.37,2013-01-12 07:08:00,
2013-01-12 02:13:00,43.8,43.0,30.10,NNE,31,0.0,0.0,97,0.00,,,0.00,WeatherDisplay:10.37,2013-01-12 07:13:00,
2013-01-12 02:18:00,43.8,43.0,30.10,NNE,31,0.0,0.0,97,0.00,,,0.00,WeatherDisplay:10.37,2013-01-12 07:18:00,
2013-01-12 02:23:00,43.8,43.0,30.10,NNE,31,0.0,0.0,97,0.00,,,0.00,WeatherDisplay:10.37,2013-01-12 07:23:00,
2013-01-12 02:28:00,43.8,43.0,30.11,NNE,30,0.0,0.0,97,0.00,,,0.00,WeatherDisplay:10.37,2013-01-12 07:28:00,
2013-01-12 02:33:00,43.9,43.1,30.11,NNE,31,0.0,0.0,97,0.00,,,0.00,WeatherDisplay:10.37,2013-01-12 07:33:00,
2013-01-12 02:38:00,43.9,43.1,30.10,NNE,30,0.0,0.0,97,0.00,,,0.00,WeatherDisplay:10.37,2013-01-12 07:38:00,
2013-01-12 02:43:00,43.9,43.1,30.10,NNE,30,1.1,1.1,97,0.00,,,0.00,WeatherDisplay:10.37,2013-01-12 07:43:00,
2013-01-12 02:48:00,43.9,43.1,30.10,NNE,31,1.1,0.0,97,0.00,,,0.00,WeatherDisplay:10.37,2013-01-12 07:48:00,
2013-01-12 02:53:00,43.8,43.0,30.10,NNE,31,0.0,0.0,97,0.00,,,0.00,WeatherDisplay:10.37,2013-01-12 07:53:00,
2013-01-12 02:58:00,43.8,43.0,30.10,NNE,30,0.0,0.0,97,0.00,,,0.00,WeatherDisplay:10.37,2013-01-12 07:58:00,
2013-01-12 03:03:00,43.8,43.0,30.10,NNE,31,0.0,0.0,97,0.00,,,0.00,WeatherDisplay:10.37,2013-01-12 08:03:00,
2013-01-12 03:08:00,43.7,42.9,30.10,NNE,30,0.0,0.0,97,0.00,,,0.00,WeatherDisplay:10.37,2013-01-12 08:08:00,
2013-01-12 03:13:00,43.6,42.8,30.09,NNE,31,0.0,0.0,97,0.00,,,0.00,WeatherDisplay:10.37,2013-01-12 08:13:00,
2013-01-12 03:18:00,43.5,42.7,30.09,NNE,30,0.0,0.0,97,0.00,,,0.00,WeatherDisplay:10.37,2013-01-12 08:18:00,
2013-01-12 03:24:00,43.5,42.7,30.09,NNE,30,0.0,0.0,97,0.00,,,0.00,WeatherDisplay:10.37,2013-01-12 08:24:00,
2013-01-12 03:28:00,43.4,42.6,30.09,NNE,31,0.0,0.0,97,0.00,,,0.00,WeatherDisplay:10.37,2013-01-12 08:28:00,
2013-01-12 03:34:00,43.4,42.6,30.09,NNE,31,0.0,0.0,97,0.00,,,0.00,WeatherDisplay:10.37,2013-01-12 08:34:00,
2013-01-12 03:39:00,43.4,42.6,30.09,NNE,30,0.0,0.0,97,0.00,,,0.00,WeatherDisplay:10.37,2013-01-12 08:39:00,
2013-01-12 03:44:00,43.4,42.6,30.10,NNE,31,0.0,0.0,97,0.00,,,0.00,WeatherDisplay:10.37,2013-01-12 08:44:00,
2013-01-12 03:49:00,43.3,42.5,30.10,NNE,31,0.0,0.0,97,0.00,,,0.00,WeatherDisplay:10.37,2013-01-12 08:49:00,
2013-01-12 03:54:00,43.3,42.5,30.10,NNE,30,0.0,0.0,97,0.00,,,0.00,WeatherDisplay:10.37,2013-01-12 08:54:00,
2013-01-12 03:59:00,43.4,42.6,30.10,NNE,30,0.0,0.0,97,0.00,,,0.00,WeatherDisplay:10.37,2013-01-12 08:59:00,
2013-01-12 04:04:00,43.3,42.5,30.09,NNE,30,1.1,0.0,97,0.00,,,0.00,WeatherDisplay:10.37,2013-01-12 09:04:00,
2013-01-12 04:09:00,43.4,42.6,30.09,NNE,31,0.0,0.0,97,0.00,,,0.00,WeatherDisplay:10.37,2013-01-12 09:09:00,
2013-01-12 04:14:00,43.4,42.6,30.09,NNE,31,0.0,0.0,97,0.00,,,0.00,WeatherDisplay:10.37,2013-01-12 09:14:00,
2013-01-12 04:19:00,43.4,42.6,30.09,NNE,30,0.0,0.0,97,0.00,,,0.00,WeatherDisplay:10.37,2013-01-12 09:19:00,
2013-01-12 04:24:00,43.3,42.8,30.09,NNE,31,0.0,0.0,98,0.00,,,0.00,WeatherDisplay:10.37,2013-01-12 09:24:00,
2013-01-12 04:29:00,43.3,42.8,30.09,NNE,31,0.0,0.0,98,0.00,,,0.00,WeatherDisplay:10.37,2013-01-12 09:29:00,
2013-01-12 04:34:00,43.4,42.9,30.09,NNE,31,0.0,0.1,98,0.00,,,0.00,WeatherDisplay:10.37,2013-01-12 09:34:00,
2013-01-12 04:39:00,43.4,42.9,30.09,NNE,30,0.0,0.0,98,0.00,,,0.00,WeatherDisplay:10.37,2013-01-12 09:39:00,
2013-01-12 04:44:00,43.4,42.9,30.08,NNE,30,0.0,0.0,98,0.00,,,0.00,WeatherDisplay:10.37,2013-01-12 09:44:00,
2013-01-12 04:49:00,43.4,42.9,30.09,NNE,31,0.0,0.0,98,0.00,,,0.00,WeatherDisplay:10.37,2013-01-12 09:49:00,
2013-01-12 04:54:00,43.3,42.8,30.10,NNE,30,0.0,0.0,98,0.00,,,0.00,WeatherDisplay:10.37,2013-01-12 09:54:00,
2013-01-12 04:59:00,43.3,42.8,30.10,NNE,30,0.0,0.0,98,0.00,,,0.00,WeatherDisplay:10.37,2013-01-12 09:59:00,
2013-01-12 05:04:00,43.3,42.8,30.10,North,358,0.0,0.0,98,0.00,,,0.00,WeatherDisplay:10.37,2013-01-12 10:04:00,
2013-01-12 05:09:00,43.2,42.7,30.10,North,358,1.1,0.0,98,0.00,,,0.00,WeatherDisplay:10.37,2013-01-12 10:09:00,
2013-01-12 05:14:00,43.2,42.7,30.10,North,358,0.0,0.0,98,0.00,,,0.00,WeatherDisplay:10.37,2013-01-12 10:14:00,
2013-01-12 05:19:00,43.2,42.7,30.09,North,358,0.0,0.0,98,0.00,,,0.00,WeatherDisplay:10.37,2013-01-12 10:19:00,
2013-01-12 05:24:00,43.2,42.7,30.09,North,359,1.1,1.1,98,0.00,,,0.00,WeatherDisplay:10.37,2013-01-12 10:24:00,
2013-01-12 05:29:00,43.3,42.8,30.09,North,358,1.1,1.1,98,0.00,,,0.00,WeatherDisplay:10.37,2013-01-12 10:29:00,
2013-01-12 05:34:00,43.3,42.8,30.09,North,358,1.1,0.0,98,0.00,,,0.00,WeatherDisplay:10.37,2013-01-12 10:34:00,
2013-01-12 05:39:00,43.3,42.8,30.09,North,358,2.3,2.3,98,0.00,,,0.00,WeatherDisplay:10.37,2013-01-12 10:39:00,
2013-01-12 05:44:00,43.3,42.8,30.09,North,358,0.0,0.0,98,0.00,,,0.00,WeatherDisplay:10.37,2013-01-12 10:44:00,
2013-01-12 05:49:00,43.2,42.7,30.09,North,358,0.0,0.0,98,0.00,,,0.00,WeatherDisplay:10.37,2013-01-12 10:49:00,
2013-01-12 05:54:00,43.2,42.7,30.10,North,358,0.0,0.0,98,0.00,,,0.00,WeatherDisplay:10.37,2013-01-12 10:54:00,
2013-01-12 05:59:00,43.2,42.7,30.10,North,358,1.1,1.1,98,0.00,,,0.00,WeatherDisplay:10.37,2013-01-12 10:59:00,
2013-01-12 06:04:00,43.2,42.7,30.10,North,358,0.0,0.0,98,0.00,,,0.00,WeatherDisplay:10.37,2013-01-12 11:04:00,
2013-01-12 06:09:00,43.1,42.3,30.10,North,358,0.0,0.0,97,0.00,,,0.00,WeatherDisplay:10.37,2013-01-12 11:09:00,
2013-01-12 06:14:00,43.1,42.3,30.11,North,358,0.0,0.0,97,0.00,,,0.00,WeatherDisplay:10.37,2013-01-12 11:14:00,
2013-01-12 06:19:00,43.0,42.2,30.11,North,358,0.0,0.0,97,0.00,,,0.00,WeatherDisplay:10.37,2013-01-12 11:19:00,
2013-01-12 06:24:00,43.0,42.5,30.11,North,359,0.0,0.0,98,0.00,,,0.00,WeatherDisplay:10.37,2013-01-12 11:24:00,
2013-01-12 06:29:00,43.0,42.5,30.12,West,259,2.3,2.3,98,0.00,,,0.00,WeatherDisplay:10.37,2013-01-12 11:29:00,
2013-01-12 06:34:00,43.0,42.5,30.12,West,259,2.3,2.3,98,0.00,,,0.00,WeatherDisplay:10.37,2013-01-12 11:34:00,
2013-01-12 06:39:00,42.9,42.4,30.12,WSW,258,0.0,0.0,98,0.00,,,0.00,WeatherDisplay:10.37,2013-01-12 11:39:00,
2013-01-12 06:44:00,42.9,42.4,30.12,West,259,0.0,0.0,98,0.00,,,0.00,WeatherDisplay:10.37,2013-01-12 11:44:00,
2013-01-12 06:49:00,42.9,42.4,30.12,West,259,2.3,2.3,98,0.00,,,0.00,WeatherDisplay:10.37,2013-01-12 11:49:00,
2013-01-12 06:54:00,42.9,42.4,30.13,WSW,258,0.0,0.0,98,0.00,,,0.00,WeatherDisplay:10.37,2013-01-12 11:54:00,
2013-01-12 06:59:00,42.9,42.4,30.13,West,259,0.0,0.0,98,0.00,,,0.00,WeatherDisplay:10.37,2013-01-12 11:59:00,
2013-01-12 07:04:00,42.8,42.3,30.13,West,259,0.0,0.0,98,0.00,,,0.00,WeatherDisplay:10.37,2013-01-12 12:04:00,
2013-01-12 07:09:00,42.8,42.3,30.14,WSW,258,0.0,0.0,98,0.00,,,0.00,WeatherDisplay:10.37,2013-01-12 12:09:00,
2013-01-12 07:14:00,42.8,42.3,30.14,West,259,0.0,0.0,98,0.00,,,0.00,WeatherDisplay:10.37,2013-01-12 12:14:00,
2013-01-12 07:19:00,42.7,41.9,30.14,WSW,258,0.0,0.0,97,0.00,,,0.00,WeatherDisplay:10.37,2013-01-12 12:19:00,
2013-01-12 07:24:00,42.7,41.9,30.14,WSW,258,0.0,0.0,97,0.00,OVC,,0.00,WeatherDisplay:10.37,2013-01-12 12:24:00,
2013-01-12 07:29:00,42.6,41.8,30.14,West,259,0.0,0.0,97,0.00,OVC,,0.00,WeatherDisplay:10.37,2013-01-12 12:29:00,
2013-01-12 07:34:00,42.6,41.8,30.15,West,259,0.0,0.0,97,0.00,OVC,,0.00,WeatherDisplay:10.37,2013-01-12 12:34:00,
2013-01-12 07:39:00,42.6,41.8,30.14,WSW,258,0.0,0.0,97,0.00,OVC,,0.00,WeatherDisplay:10.37,2013-01-12 12:39:00,
2013-01-12 07:44:00,42.6,42.1,30.15,West,259,0.0,0.0,98,0.00,OVC,,0.00,WeatherDisplay:10.37,2013-01-12 12:44:00,
2013-01-12 07:49:00,42.6,42.1,30.15,West,259,0.0,0.0,98,0.00,OVC,,0.00,WeatherDisplay:10.37,2013-01-12 12:49:00,
2013-01-12 07:54:00,42.6,42.1,30.16,West,259,2.3,2.3,98,0.00,OVC,,0.00,WeatherDisplay:10.37,2013-01-12 12:54:00,
2013-01-12 07:59:00,42.5,42.0,30.15,WSW,258,1.1,0.0,98,0.00,OVC,,0.00,WeatherDisplay:10.37,2013-01-12 12:59:00,
2013-01-12 08:04:00,42.5,42.0,30.15,West,259,0.0,0.0,98,0.00,OVC,,0.00,WeatherDisplay:10.37,2013-01-12 13:04:00,
2013-01-12 08:09:00,42.6,42.1,30.15,West,259,1.1,0.0,98,0.00,OVC,,0.00,WeatherDisplay:10.37,2013-01-12 13:09:00,
2013-01-12 08:14:00,42.6,42.1,30.15,West,259,0.0,0.0,98,0.00,OVC,,0.00,WeatherDisplay:10.37,2013-01-12 13:14:00,
2013-01-12 08:19:00,42.6,42.1,30.15,WSW,258,0.0,0.0,98,0.00,OVC,,0.00,WeatherDisplay:10.37,2013-01-12 13:19:00,
2013-01-12 08:24:00,42.6,42.1,30.15,West,259,0.0,0.3,98,0.00,OVC,,0.00,WeatherDisplay:10.37,2013-01-12 13:24:00,
2013-01-12 08:29:00,42.5,42.0,30.16,WSW,258,2.3,2.3,98,0.00,OVC,,0.00,WeatherDisplay:10.37,2013-01-12 13:29:00,
2013-01-12 08:34:00,42.5,42.0,30.16,WSW,258,0.0,0.0,98,0.00,OVC,,0.00,WeatherDisplay:10.37,2013-01-12 13:34:00,
2013-01-12 08:39:00,42.5,42.0,30.16,West,259,2.3,2.3,98,0.00,OVC,,0.00,WeatherDisplay:10.37,2013-01-12 13:39:00,
2013-01-12 08:45:00,42.6,42.1,30.16,West,279,0.0,0.0,98,0.00,OVC,,0.00,WeatherDisplay:10.37,2013-01-12 13:45:00,
2013-01-12 08:50:00,42.7,42.2,30.17,West,279,0.0,0.8,98,0.00,OVC,,0.00,WeatherDisplay:10.37,2013-01-12 13:50:00,
2013-01-12 08:55:00,42.8,42.3,30.17,West,279,1.1,0.0,98,0.00,OVC,,0.00,WeatherDisplay:10.37,2013-01-12 13:55:00,
2013-01-12 09:00:00,42.8,42.3,30.16,NNW,344,2.3,2.3,98,0.00,OVC,,0.00,WeatherDisplay:10.37,2013-01-12 14:00:00,
2013-01-12 09:05:00,42.7,42.2,30.17,NW,305,2.3,2.3,98,0.00,OVC,,0.00,WeatherDisplay:10.37,2013-01-12 14:05:00,
2013-01-12 09:10:00,42.8,42.3,30.17,NW,304,1.1,1.1,98,0.00,OVC,,0.00,WeatherDisplay:10.37,2013-01-12 14:10:00,
2013-01-12 09:15:00,42.9,42.4,30.17,NW,304,2.3,2.3,98,0.00,OVC,,0.00,WeatherDisplay:10.37,2013-01-12 14:15:00,
2013-01-12 09:20:00,42.9,42.4,30.17,NW,304,2.3,2.3,98,0.00,OVC,,0.00,WeatherDisplay:10.37,2013-01-12 14:20:00,
2013-01-12 09:25:00,42.9,42.4,30.17,NW,305,0.0,0.1,98,0.00,OVC,,0.00,WeatherDisplay:10.37,2013-01-12 14:25:00,
2013-01-12 09:30:00,42.9,42.4,30.17,NW,324,1.0,1.0,98,0.00,OVC,,0.00,WeatherDisplay:10.37,2013-01-12 14:30:00,
2013-01-12 09:35:00,43.0,42.5,30.17,NW,324,1.1,0.0,98,0.00,OVC,,0.00,WeatherDisplay:10.37,2013-01-12 14:35:00,
2013-01-12 09:40:00,43.1,42.6,30.16,NW,323,0.0,0.0,98,0.00,OVC,,0.00,WeatherDisplay:10.37,2013-01-12 14:40:00,
2013-01-12 09:45:00,43.3,42.8,30.16,NW,324,1.1,0.0,98,0.00,OVC,,0.00,WeatherDisplay:10.37,2013-01-12 14:45:00,
2013-01-12 09:50:00,43.4,42.9,30.16,NW,324,1.1,0.0,98,0.00,OVC,,0.00,WeatherDisplay:10.37,2013-01-12 14:50:00,
2013-01-12 09:55:00,43.6,43.1,30.16,NW,324,1.1,1.1,98,0.00,OVC,,0.00,WeatherDisplay:10.37,2013-01-12 14:55:00,
2013-01-12 10:00:00,43.7,43.2,30.16,NW,324,0.0,0.0,98,0.00,OVC,,0.00,WeatherDisplay:10.37,2013-01-12 15:00:00,
2013-01-12 10:05:00,43.8,43.3,30.16,NW,324,0.0,0.0,98,0.00,OVC,,0.00,WeatherDisplay:10.37,2013-01-12 15:05:00,
2013-01-12 10:10:00,43.9,43.4,30.16,NW,324,1.0,1.0,98,0.00,OVC,,0.00,WeatherDisplay:10.37,2013-01-12 15:10:00,
2013-01-12 10:15:00,44.0,43.5,30.15,NNW,342,0.0,0.0,98,0.00,OVC,,0.00,WeatherDisplay:10.37,2013-01-12 15:15:00,
2013-01-12 10:20:00,44.1,43.6,30.16,NNW,342,1.1,0.0,98,0.00,OVC,,0.00,WeatherDisplay:10.37,2013-01-12 15:20:00,
2013-01-12 10:25:00,44.3,43.8,30.15,NNW,342,0.0,0.0,98,0.00,OVC,,0.00,WeatherDisplay:10.37,2013-01-12 15:25:00,
2013-01-12 10:30:00,44.4,43.9,30.16,NNW,342,1.0,0.0,98,0.00,OVC,,0.00,WeatherDisplay:10.37,2013-01-12 15:30:00,
2013-01-12 10:35:00,44.5,44.0,30.16,NNW,342,1.1,1.1,98,0.00,OVC,,0.00,WeatherDisplay:10.37,2013-01-12 15:35:00,
2013-01-12 10:40:00,44.5,44.0,30.16,NNW,342,1.1,1.1,98,0.00,OVC,,0.00,WeatherDisplay:10.37,2013-01-12 15:40:00,
2013-01-12 10:45:00,44.7,44.2,30.16,NNW,342,3.5,3.5,98,0.00,OVC,,0.00,WeatherDisplay:10.37,2013-01-12 15:45:00,
2013-01-12 10:50:00,44.8,44.3,30.15,NNW,342,2.3,0.0,98,0.00,OVC,,0.00,WeatherDisplay:10.37,2013-01-12 15:50:00,
2013-01-12 10:55:00,44.7,44.2,30.15,NNW,342,1.1,1.1,98,0.00,OVC,,0.00,WeatherDisplay:10.37,2013-01-12 15:55:00,
2013-01-12 11:00:00,44.7,44.2,30.15,NNW,330,3.5,3.5,98,0.00,OVC,,0.00,WeatherDisplay:10.37,2013-01-12 16:00:00,
2013-01-12 11:05:00,44.6,44.1,30.15,NNW,330,0.0,0.0,98,0.00,OVC,,0.00,WeatherDisplay:10.37,2013-01-12 16:05:00,
2013-01-12 11:10:00,44.7,44.2,30.15,NNW,329,2.3,2.3,98,0.00,OVC,,0.00,WeatherDisplay:10.37,2013-01-12 16:10:00,
2013-01-12 11:15:00,44.7,44.2,30.16,NNW,329,2.3,2.3,98,0.00,OVC,,0.00,WeatherDisplay:10.37,2013-01-12 16:15:00,
2013-01-12 11:20:00,44.8,44.3,30.16,NNW,327,1.1,1.1,98,0.00,OVC,,0.00,WeatherDisplay:10.37,2013-01-12 16:20:00,
2013-01-12 11:25:00,45.0,44.5,30.16,NNW,327,1.1,1.1,98,0.00,OVC,,0.00,WeatherDisplay:10.37,2013-01-12 16:25:00,
2013-01-12 11:30:00,45.0,44.5,30.15,NNW,327,1.0,1.0,98,0.00,OVC,,0.00,WeatherDisplay:10.37,2013-01-12 16:30:00,
2013-01-12 11:35:00,45.2,44.7,30.15,NNW,327,3.5,3.5,98,0.00,OVC,,0.00,WeatherDisplay:10.37,2013-01-12 16:35:00,
2013-01-12 11:40:00,45.4,44.9,30.15,NW,309,0.0,0.0,98,0.00,OVC,,0.00,WeatherDisplay:10.37,2013-01-12 16:40:00,
2013-01-12 11:45:00,45.6,45.1,30.14,NW,309,0.0,0.0,98,0.00,OVC,,0.00,WeatherDisplay:10.37,2013-01-12 16:45:00,
2013-01-12 11:50:00,45.9,45.4,30.14,NNE,23,2.3,2.3,98,0.00,OVC,,0.00,WeatherDisplay:10.37,2013-01-12 16:50:00,
2013-01-12 11:55:00,46.0,45.5,30.13,WNW,285,2.3,2.3,98,0.00,OVC,,0.00,WeatherDisplay:10.37,2013-01-12 16:55:00,
2013-01-12 12:00:00,46.1,45.6,30.13,NNE,25,2.3,2.3,98,0.00,OVC,,0.00,WeatherDisplay:10.37,2013-01-12 17:00:00,
2013-01-12 12:05:00,46.3,45.8,30.14,NE,44,2.3,2.3,98,0.00,OVC,,0.00,WeatherDisplay:10.37,2013-01-12 17:05:00,
2013-01-12 12:10:00,46.4,45.6,30.13,NW,309,2.3,2.3,97,0.00,OVC,,0.00,WeatherDisplay:10.37,2013-01-12 17:10:00,
2013-01-12 12:15:00,46.6,45.8,30.13,ENE,67,4.0,4.0,97,0.00,OVC,,0.00,WeatherDisplay:10.37,2013-01-12 17:15:00,
2013-01-12 12:20:00,46.6,45.8,30.13,ENE,63,1.1,1.1,97,0.00,OVC,,0.00,WeatherDisplay:10.37,2013-01-12 17:20:00,
2013-01-12 12:25:00,46.5,45.7,30.13,ENE,67,3.5,3.5,97,0.00,OVC,,0.00,WeatherDisplay:10.37,2013-01-12 17:25:00,
2013-01-12 12:30:00,46.7,45.9,30.13,ENE,67,1.0,1.0,97,0.00,OVC,,0.00,WeatherDisplay:10.37,2013-01-12 17:30:00,
2013-01-12 12:35:00,46.7,45.6,30.13,ENE,67,0.0,0.0,96,0.00,OVC,,0.00,WeatherDisplay:10.37,2013-01-12 17:35:00,
2013-01-12 12:40:00,46.8,45.7,30.14,ENE,67,0.0,0.0,96,0.00,OVC,,0.00,WeatherDisplay:10.37,2013-01-12 17:40:00,
2013-01-12 12:45:00,46.9,45.8,30.14,ENE,60,1.1,0.0,96,0.00,OVC,,0.00,WeatherDisplay:10.37,2013-01-12 17:45:00,
2013-01-12 12:50:00,47.0,45.9,30.14,ENE,61,0.0,0.0,96,0.00,OVC,,0.00,WeatherDisplay:10.37,2013-01-12 17:50:00,
2013-01-12 12:55:00,47.1,45.7,30.14,ENE,61,1.1,1.1,95,0.00,OVC,,0.00,WeatherDisplay:10.37,2013-01-12 17:55:00,
2013-01-12 13:00:00,47.2,45.8,30.14,ENE,60,0.0,0.0,95,0.00,OVC,,0.00,WeatherDisplay:10.37,2013-01-12 18:00:00,
2013-01-12 13:05:00,47.3,45.9,30.14,ENE,61,0.0,0.0,95,0.00,OVC,,0.00,WeatherDisplay:10.37,2013-01-12 18:05:00,
2013-01-12 13:10:00,47.5,46.1,30.14,North,9,1.1,1.1,95,0.00,OVC,,0.00,WeatherDisplay:10.37,2013-01-12 18:10:00,
2013-01-12 13:15:00,47.6,46.0,30.14,North,10,1.1,0.0,94,0.00,OVC,,0.00,WeatherDisplay:10.37,2013-01-12 18:15:00,
2013-01-12 13:20:00,47.7,46.1,30.14,North,9,1.1,0.0,94,0.00,OVC,,0.00,WeatherDisplay:10.37,2013-01-12 18:20:00,
2013-01-12 13:26:00,47.8,46.2,30.14,NNE,29,0.0,0.0,94,0.00,OVC,,0.00,WeatherDisplay:10.37,2013-01-12 18:26:00,
2013-01-12 13:31:00,48.0,46.1,30.14,NNE,28,0.0,0.0,93,0.00,OVC,,0.00,WeatherDisplay:10.37,2013-01-12 18:31:00,
2013-01-12 13:36:00,48.1,46.2,30.14,NNE,28,1.1,0.0,93,0.00,OVC,,0.00,WeatherDisplay:10.37,2013-01-12 18:36:00,
2013-01-12 13:41:00,48.3,46.1,30.13,NNE,28,2.3,2.3,92,0.00,OVC,,0.00,WeatherDisplay:10.37,2013-01-12 18:41:00,
2013-01-12 13:46:00,48.4,46.2,30.14,NNE,28,0.0,0.0,92,0.00,OVC,,0.00,WeatherDisplay:10.37,2013-01-12 18:46:00,
2013-01-12 13:51:00,48.5,46.3,30.14,NNE,28,0.0,0.0,92,0.00,OVC,,0.00,WeatherDisplay:10.37,2013-01-12 18:51:00,
2013-01-12 13:56:00,48.6,46.4,30.13,NNE,28,1.1,1.1,92,0.00,OVC,,0.00,WeatherDisplay:10.37,2013-01-12 18:56:00,
2013-01-12 14:01:00,48.7,46.2,30.13,NNE,28,1.1,1.1,91,0.00,OVC,,0.00,WeatherDisplay:10.37,2013-01-12 19:01:00,
2013-01-12 14:06:00,48.9,46.4,30.13,NNE,28,1.1,1.1,91,0.00,OVC,,0.00,WeatherDisplay:10.37,2013-01-12 19:06:00,
2013-01-12 14:11:00,49.0,46.5,30.13,NNE,28,1.1,1.1,91,0.00,OVC,,0.00,WeatherDisplay:10.37,2013-01-12 19:11:00,
2013-01-12 14:16:00,49.1,46.6,30.13,NNE,28,1.1,1.1,91,0.00,OVC,,0.00,WeatherDisplay:10.37,2013-01-12 19:16:00,
2013-01-12 14:21:00,49.4,46.9,30.13,NNE,28,2.3,2.3,91,0.00,OVC,,0.00,WeatherDisplay:10.37,2013-01-12 19:21:00,
2013-01-12 14:26:00,49.5,46.7,30.13,NNE,28,2.3,0.0,90,0.00,OVC,,0.00,WeatherDisplay:10.37,2013-01-12 19:26:00,
2013-01-12 14:31:00,49.6,46.8,30.13,NNE,28,1.1,0.0,90,0.00,OVC,,0.00,WeatherDisplay:10.37,2013-01-12 19:31:00,
2013-01-12 14:36:00,49.6,46.8,30.12,NNE,28,1.1,1.1,90,0.00,OVC,,0.00,WeatherDisplay:10.37,2013-01-12 19:36:00,
2013-01-12 14:41:00,49.4,46.3,30.12,NE,38,2.3,2.3,89,0.00,OVC,,0.00,WeatherDisplay:10.37,2013-01-12 19:41:00,
2013-01-12 14:46:00,49.2,46.4,30.12,NE,39,1.1,1.1,90,0.00,OVC,,0.00,WeatherDisplay:10.37,2013-01-12 19:46:00,
2013-01-12 14:51:00,49.0,46.2,30.12,NE,39,2.0,2.0,90,0.00,OVC,,0.00,WeatherDisplay:10.37,2013-01-12 19:51:00,
2013-01-12 14:56:00,48.9,46.1,30.13,NE,39,1.0,0.0,90,0.00,OVC,,0.00,WeatherDisplay:10.37,2013-01-12 19:56:00,
2013-01-12 15:01:00,49.0,46.2,30.13,NE,39,1.1,1.1,90,0.00,OVC,,0.00,WeatherDisplay:10.37,2013-01-12 20:01:00,
2013-01-12 15:06:00,49.1,46.3,30.13,NE,39,1.1,0.0,90,0.00,OVC,,0.00,WeatherDisplay:10.37,2013-01-12 20:06:00,
2013-01-12 15:11:00,49.1,46.3,30.13,NE,53,3.5,3.5,90,0.00,OVC,,0.00,WeatherDisplay:10.37,2013-01-12 20:11:00,
2013-01-12 15:16:00,48.9,46.1,30.12,NE,44,2.3,2.3,90,0.00,OVC,,0.00,WeatherDisplay:10.37,2013-01-12 20:16:00,
2013-01-12 15:21:00,48.8,46.0,30.13,NE,44,2.0,2.0,90,0.00,OVC,,0.00,WeatherDisplay:10.37,2013-01-12 20:21:00,
2013-01-12 15:26:00,48.7,45.9,30.13,NE,44,3.5,3.5,90,0.00,OVC,,0.00,WeatherDisplay:10.37,2013-01-12 20:26:00,
2013-01-12 15:31:00,48.7,45.9,30.12,NE,44,1.1,1.1,90,0.00,OVC,,0.00,WeatherDisplay:10.37,2013-01-12 20:31:00,
2013-01-12 15:36:00,48.6,45.8,30.12,NE,44,1.1,0.0,90,0.00,OVC,,0.00,WeatherDisplay:10.37,2013-01-12 20:36:00,
2013-01-12 15:41:00,48.5,45.7,30.13,NE,44,1.1,1.1,90,0.00,OVC,,0.00,WeatherDisplay:10.37,2013-01-12 20:41:00,
2013-01-12 15:46:00,48.3,45.8,30.12,NE,44,2.3,2.3,91,0.00,OVC,,0.00,WeatherDisplay:10.37,2013-01-12 20:46:00,
2013-01-12 15:51:00,48.2,45.7,30.13,NE,44,0.0,0.0,91,0.00,OVC,,0.00,WeatherDisplay:10.37,2013-01-12 20:51:00,
2013-01-12 15:56:00,48.2,45.7,30.13,NE,44,0.0,0.0,91,0.00,OVC,,0.00,WeatherDisplay:10.37,2013-01-12 20:56:00,
2013-01-12 16:01:00,48.1,45.6,30.12,NE,44,0.0,0.1,91,0.00,OVC,,0.00,WeatherDisplay:10.37,2013-01-12 21:01:00,
2013-01-12 16:06:00,48.1,45.6,30.13,NE,44,1.1,1.1,91,0.00,OVC,,0.00,WeatherDisplay:10.37,2013-01-12 21:06:00,
2013-01-12 16:11:00,48.0,45.5,30.13,NE,44,0.0,0.0,91,0.00,OVC,,0.00,WeatherDisplay:10.37,2013-01-12 21:11:00,
2013-01-12 16:16:00,48.0,45.5,30.13,NE,44,1.1,1.1,91,0.00,OVC,,0.00,WeatherDisplay:10.37,2013-01-12 21:16:00,
2013-01-12 16:21:00,47.9,45.4,30.13,NE,44,2.3,2.3,91,0.00,OVC,,0.00,WeatherDisplay:10.37,2013-01-12 21:21:00,
2013-01-12 16:26:00,47.8,45.3,30.14,NE,49,3.5,3.5,91,0.00,OVC,,0.00,WeatherDisplay:10.37,2013-01-12 21:26:00,
2013-01-12 16:31:00,47.7,45.5,30.13,ENE,57,1.1,0.0,92,0.00,OVC,,0.00,WeatherDisplay:10.37,2013-01-12 21:31:00,
2013-01-12 16:36:00,47.6,45.4,30.13,ENE,57,1.1,1.1,92,0.00,OVC,,0.00,WeatherDisplay:10.37,2013-01-12 21:36:00,
2013-01-12 16:41:00,47.4,45.2,30.14,ENE,58,0.0,0.0,92,0.00,OVC,,0.00,WeatherDisplay:10.37,2013-01-12 21:41:00,
2013-01-12 16:46:00,47.2,45.0,30.14,ENE,58,0.0,0.0,92,0.00,OVC,,0.00,WeatherDisplay:10.37,2013-01-12 21:46:00,
2013-01-12 16:51:00,47.0,44.8,30.14,ENE,57,0.0,0.0,92,0.00,OVC,,0.00,WeatherDisplay:10.37,2013-01-12 21:51:00,
2013-01-12 16:56:00,46.8,44.6,30.15,ENE,58,0.0,0.0,92,0.00,OVC,,0.00,WeatherDisplay:10.37,2013-01-12 21:56:00,
2013-01-12 17:01:00,46.7,44.8,30.15,ENE,57,0.0,0.0,93,0.00,OVC,,0.00,WeatherDisplay:10.37,2013-01-12 22:01:00,
2013-01-12 17:06:00,46.5,44.6,30.15,ENE,57,0.0,0.0,93,0.00,OVC,,0.00,WeatherDisplay:10.37,2013-01-12 22:06:00,
2013-01-12 17:11:00,46.3,44.4,30.15,ENE,57,0.0,0.0,93,0.00,OVC,,0.00,WeatherDisplay:10.37,2013-01-12 22:11:00,
2013-01-12 17:16:00,46.3,44.4,30.15,ENE,58,0.0,0.0,93,0.00,OVC,,0.00,WeatherDisplay:10.37,2013-01-12 22:16:00,
2013-01-12 17:21:00,46.3,44.4,30.15,ENE,58,0.0,0.0,93,0.00,OVC,,0.00,WeatherDisplay:10.37,2013-01-12 22:21:00,
2013-01-12 17:26:00,46.2,44.6,30.15,ENE,57,0.0,0.0,94,0.00,OVC,,0.00,WeatherDisplay:10.37,2013-01-12 22:26:00,
2013-01-12 17:31:00,46.2,44.6,30.16,ENE,58,0.0,0.0,94,0.00,OVC,,0.00,WeatherDisplay:10.37,2013-01-12 22:31:00,
2013-01-12 17:36:00,46.1,44.5,30.16,ENE,57,0.0,0.0,94,0.00,OVC,,0.00,WeatherDisplay:10.37,2013-01-12 22:36:00,
2013-01-12 17:41:00,46.0,44.4,30.17,ENE,58,0.0,0.0,94,0.00,OVC,,0.00,WeatherDisplay:10.37,2013-01-12 22:41:00,
2013-01-12 17:46:00,46.0,44.4,30.17,ENE,57,0.0,0.0,94,0.00,OVC,,0.00,WeatherDisplay:10.37,2013-01-12 22:46:00,
2013-01-12 17:51:00,46.0,44.4,30.16,ENE,57,0.0,0.0,94,0.00,OVC,,0.00,WeatherDisplay:10.37,2013-01-12 22:51:00,
2013-01-12 17:56:00,46.0,44.4,30.17,ENE,58,0.0,0.0,94,0.00,OVC,,0.00,WeatherDisplay:10.37,2013-01-12 22:56:00,
2013-01-12 18:01:00,46.0,44.6,30.16,ENE,57,0.0,0.0,95,0.00,OVC,,0.00,WeatherDisplay:10.37,2013-01-12 23:01:00,
2013-01-12 18:06:00,46.0,44.6,30.16,ENE,57,0.0,0.0,95,0.00,OVC,,0.00,WeatherDisplay:10.37,2013-01-12 23:06:00,
2013-01-12 18:11:00,46.0,44.6,30.15,ENE,58,0.0,0.0,95,0.00,OVC,,0.00,WeatherDisplay:10.37,2013-01-12 23:11:00,
2013-01-12 18:16:00,46.0,44.6,30.16,ENE,57,0.0,0.0,95,0.00,OVC,,0.00,WeatherDisplay:10.37,2013-01-12 23:16:00,
2013-01-12 18:21:00,45.9,44.5,30.16,ENE,57,0.0,0.0,95,0.00,OVC,,0.00,WeatherDisplay:10.37,2013-01-12 23:21:00,
2013-01-12 18:26:00,45.9,44.5,30.15,ENE,58,0.0,0.0,95,0.00,OVC,,0.00,WeatherDisplay:10.37,2013-01-12 23:26:00,
2013-01-12 18:31:00,45.8,44.4,30.15,ENE,58,0.0,0.0,95,0.00,OVC,,0.00,WeatherDisplay:10.37,2013-01-12 23:31:00,
2013-01-12 18:36:00,45.8,44.4,30.16,ENE,58,1.1,0.0,95,0.00,OVC,,0.00,WeatherDisplay:10.37,2013-01-12 23:36:00,
2013-01-12 18:41:00,45.7,44.4,30.16,ENE,58,0.0,0.0,95,0.00,OVC,,0.00,WeatherDisplay:10.37,2013-01-12 23:41:00,
2013-01-12 18:46:00,45.6,44.3,30.16,ENE,58,0.0,0.0,95,0.00,OVC,,0.00,WeatherDisplay:10.37,2013-01-12 23:46:00,
2013-01-12 18:51:00,45.5,44.2,30.15,ENE,58,0.0,0.0,95,0.00,OVC,,0.00,WeatherDisplay:10.37,2013-01-12 23:51:00,
2013-01-12 18:56:00,45.5,44.2,30.15,ENE,58,0.0,0.0,95,0.00,OVC,,0.00,WeatherDisplay:10.37,2013-01-12 23:56:00,
2013-01-12 19:01:00,45.4,44.1,30.15,ENE,57,0.0,0.0,95,0.00,OVC,,0.00,WeatherDisplay:10.37,2013-01-13 00:01:00,
2013-01-12 19:06:00,45.4,44.1,30.16,ENE,57,0.0,0.0,95,0.00,OVC,,0.00,WeatherDisplay:10.37,2013-01-13 00:06:00,
2013-01-12 19:11:00,45.3,44.0,30.16,ENE,58,0.0,0.0,95,0.00,OVC,,0.00,WeatherDisplay:10.37,2013-01-13 00:11:00,
2013-01-12 19:16:00,45.3,44.0,30.16,ENE,58,0.0,0.0,95,0.00,OVC,,0.00,WeatherDisplay:10.37,2013-01-13 00:16:00,
2013-01-12 19:21:00,45.2,44.1,30.16,ENE,58,0.0,0.0,96,0.00,OVC,,0.00,WeatherDisplay:10.37,2013-01-13 00:21:00,
2013-01-12 19:27:00,45.2,44.1,30.16,ENE,57,2.3,0.0,96,0.00,OVC,,0.00,WeatherDisplay:10.37,2013-01-13 00:27:00,
2013-01-12 19:32:00,45.1,44.0,30.17,ENE,57,0.0,0.0,96,0.00,,,0.00,WeatherDisplay:10.37,2013-01-13 00:32:00,
2013-01-12 19:37:00,45.0,43.9,30.16,ENE,57,0.0,0.0,96,0.00,,,0.00,WeatherDisplay:10.37,2013-01-13 00:37:00,
2013-01-12 19:42:00,45.0,43.9,30.16,ENE,57,0.0,0.0,96,0.00,,,0.00,WeatherDisplay:10.37,2013-01-13 00:42:00,
2013-01-12 19:47:00,45.0,43.9,30.16,ENE,58,0.0,0.0,96,0.00,,,0.00,WeatherDisplay:10.37,2013-01-13 00:47:00,
2013-01-12 19:52:00,45.0,43.9,30.16,ENE,58,0.0,0.0,96,0.00,,,0.00,WeatherDisplay:10.37,2013-01-13 00:52:00,
2013-01-12 19:57:00,45.0,43.9,30.16,ENE,57,0.0,0.0,96,0.00,,,0.00,WeatherDisplay:10.37,2013-01-13 00:57:00,
2013-01-12 20:02:00,45.0,43.9,30.16,ENE,58,0.0,0.0,96,0.00,,,0.00,WeatherDisplay:10.37,2013-01-13 01:02:00,
2013-01-12 20:07:00,45.0,43.9,30.17,ENE,58,0.0,0.0,96,0.00,,,0.00,WeatherDisplay:10.37,2013-01-13 01:07:00,
2013-01-12 20:12:00,45.0,43.9,30.16,ENE,58,0.0,0.0,96,0.00,,,0.00,WeatherDisplay:10.37,2013-01-13 01:12:00,
2013-01-12 20:17:00,45.0,43.9,30.16,ENE,57,0.0,0.0,96,0.00,,,0.00,WeatherDisplay:10.37,2013-01-13 01:17:00,
2013-01-12 20:22:00,45.0,43.9,30.15,ENE,58,0.0,0.0,96,0.00,,,0.00,WeatherDisplay:10.37,2013-01-13 01:22:00,
2013-01-12 20:27:00,44.9,43.8,30.15,ENE,58,0.0,0.0,96,0.00,,,0.00,WeatherDisplay:10.37,2013-01-13 01:27:00,
2013-01-12 20:32:00,44.9,43.8,30.15,ENE,58,0.0,0.0,96,0.00,,,0.00,WeatherDisplay:10.37,2013-01-13 01:32:00,
2013-01-12 20:37:00,44.9,43.8,30.14,ENE,57,0.0,0.0,96,0.00,,,0.00,WeatherDisplay:10.37,2013-01-13 01:37:00,
2013-01-12 20:42:00,44.9,43.8,30.13,ENE,58,0.0,0.0,96,0.00,,,0.00,WeatherDisplay:10.37,2013-01-13 01:42:00,
2013-01-12 20:47:00,44.9,43.8,30.14,ENE,58,0.0,0.0,96,0.00,,,0.00,WeatherDisplay:10.37,2013-01-13 01:47:00,
2013-01-12 20:52:00,44.9,43.8,30.13,ENE,57,0.0,0.0,96,0.00,,,0.00,WeatherDisplay:10.37,2013-01-13 01:52:00,
2013-01-12 20:57:00,44.9,43.8,30.13,ENE,57,0.0,0.0,96,0.00,,,0.00,WeatherDisplay:10.37,2013-01-13 01:57:00,
2013-01-12 21:02:00,44.8,44.0,30.13,ENE,57,0.0,0.0,97,0.00,,,0.00,WeatherDisplay:10.37,2013-01-13 02:02:00,
2013-01-12 21:07:00,44.8,44.0,30.13,ENE,58,0.0,0.0,97,0.00,,,0.00,WeatherDisplay:10.37,2013-01-13 02:07:00,
2013-01-12 21:12:00,44.7,43.9,30.13,ENE,58,0.0,0.0,97,0.00,,,0.00,WeatherDisplay:10.37,2013-01-13 02:12:00,
2013-01-12 21:17:00,44.6,43.8,30.14,ENE,58,1.1,1.1,97,0.00,,,0.00,WeatherDisplay:10.37,2013-01-13 02:17:00,
2013-01-12 21:22:00,44.6,43.8,30.13,ENE,58,0.0,0.0,97,0.00,,,0.00,WeatherDisplay:10.37,2013-01-13 02:22:00,
2013-01-12 21:27:00,44.5,43.7,30.13,ENE,58,0.0,0.0,97,0.00,,,0.00,WeatherDisplay:10.37,2013-01-13 02:27:00,
2013-01-12 21:32:00,44.4,43.3,30.13,ENE,58,0.0,0.0,96,0.00,,,0.00,WeatherDisplay:10.37,2013-01-13 02:32:00,
2013-01-12 21:37:00,44.3,43.2,30.13,ENE,58,0.0,0.0,96,0.00,,,0.00,WeatherDisplay:10.37,2013-01-13 02:37:00,
2013-01-12 21:42:00,44.3,43.5,30.12,ENE,57,0.0,0.0,97,0.00,,,0.00,WeatherDisplay:10.37,2013-01-13 02:42:00,
2013-01-12 21:47:00,44.2,43.4,30.13,ENE,57,0.0,0.0,97,0.00,,,0.00,WeatherDisplay:10.37,2013-01-13 02:47:00,
2013-01-12 21:52:00,44.1,43.3,30.13,ENE,57,0.0,0.0,97,0.00,,,0.00,WeatherDisplay:10.37,2013-01-13 02:52:00,
2013-01-12 21:57:00,44.1,43.3,30.13,ENE,58,0.0,0.0,97,0.00,,,0.00,WeatherDisplay:10.37,2013-01-13 02:57:00,
2013-01-12 22:02:00,44.1,43.3,30.12,ENE,58,0.0,0.0,97,0.00,,,0.00,WeatherDisplay:10.37,2013-01-13 03:02:00,
2013-01-12 22:07:00,44.0,43.2,30.13,ENE,58,0.0,0.0,97,0.00,,,0.00,WeatherDisplay:10.37,2013-01-13 03:07:00,
2013-01-12 22:12:00,44.0,43.2,30.12,ENE,57,0.0,0.0,97,0.00,,,0.00,WeatherDisplay:10.37,2013-01-13 03:12:00,
2013-01-12 22:17:00,44.0,43.2,30.12,ENE,57,0.0,0.0,97,0.00,,,0.00,WeatherDisplay:10.37,2013-01-13 03:17:00,
2013-01-12 22:22:00,44.0,43.2,30.12,ENE,58,0.0,0.0,97,0.00,,,0.00,WeatherDisplay:10.37,2013-01-13 03:22:00,
2013-01-12 22:27:00,44.0,43.2,30.13,ENE,58,0.0,0.0,97,0.00,,,0.00,WeatherDisplay:10.37,2013-01-13 03:27:00,
2013-01-12 22:32:00,44.0,43.2,30.14,ENE,58,0.0,0.0,97,0.00,,,0.00,WeatherDisplay:10.37,2013-01-13 03:32:00,
2013-01-12 22:37:00,44.0,43.2,30.14,ENE,58,0.0,0.0,97,0.00,,,0.00,WeatherDisplay:10.37,2013-01-13 03:37:00,
2013-01-12 22:42:00,44.0,43.2,30.14,ENE,58,0.0,0.0,97,0.00,,,0.00,WeatherDisplay:10.37,2013-01-13 03:42:00,
2013-01-12 22:47:00,44.0,43.2,30.14,ENE,58,0.0,0.0,97,0.00,,,0.00,WeatherDisplay:10.37,2013-01-13 03:47:00,
2013-01-12 22:52:00,44.0,43.2,30.13,ENE,57,0.0,0.0,97,0.00,,,0.00,WeatherDisplay:10.37,2013-01-13 03:52:00,
2013-01-12 22:57:00,44.0,43.2,30.14,ENE,58,0.0,0.0,97,0.00,,,0.00,WeatherDisplay:10.37,2013-01-13 03:57:00,
2013-01-12 23:02:00,44.0,43.2,30.14,ENE,58,0.0,0.0,97,0.00,,,0.00,WeatherDisplay:10.37,2013-01-13 04:02:00,
2013-01-12 23:07:00,44.0,43.2,30.14,ENE,58,0.0,0.0,97,0.00,,,0.00,WeatherDisplay:10.37,2013-01-13 04:07:00,
2013-01-12 23:12:00,44.0,43.2,30.14,ENE,58,0.0,0.0,97,0.00,,,0.00,WeatherDisplay:10.37,2013-01-13 04:12:00,
2013-01-12 23:17:00,43.9,43.1,30.14,ENE,58,0.0,0.0,97,0.00,,,0.00,WeatherDisplay:10.37,2013-01-13 04:17:00,
2013-01-12 23:22:00,43.9,43.1,30.14,ENE,58,0.0,0.0,97,0.00,,,0.00,WeatherDisplay:10.37,2013-01-13 04:22:00,
2013-01-12 23:27:00,43.9,43.1,30.14,ENE,58,0.0,0.0,97,0.00,,,0.00,WeatherDisplay:10.37,2013-01-13 04:27:00,
2013-01-12 23:32:00,43.9,43.1,30.14,ENE,58,0.0,0.0,97,0.00,,,0.00,WeatherDisplay:10.37,2013-01-13 04:32:00,
2013-01-12 23:37:00,43.8,43.0,30.14,ENE,58,0.0,0.0,97,0.00,,,0.00,WeatherDisplay:10.37,2013-01-13 04:37:00,
2013-01-12 23:42:00,43.8,43.0,30.15,ENE,57,0.0,0.0,97,0.00,,,0.00,WeatherDisplay:10.37,2013-01-13 04:42:00,
2013-01-12 23:47:00,43.7,42.9,30.15,ENE,57,0.0,0.0,97,0.00,,,0.00,WeatherDisplay:10.37,2013-01-13 04:47:00,
2013-01-12 23:52:00,43.7,42.9,30.14,ENE,58,0.0,0.0,97,0.00,,,0.00,WeatherDisplay:10.37,2013-01-13 04:52:00,
2013-01-12 23:57:00,43.6,42.8,30.14,ENE,58,0.0,0.0,97,0.00,,,0.00,WeatherDisplay:10.37,2013-01-13 04:57:00,